Weather History for Charlottesville, VA

Change the Weather History Date:

Tuesday, November 19, 2013

  Actual Average Record
Temperature  
Mean Temperature 42 °F 46 °F  
Max Temperature 50 °F 56 °F 77 °F (1953)
Min Temperature 33 °F 36 °F 9 °F (1926)
Degree Days  
Heating Degree Days 23 19  
Month to date heating degree days 315 308  
Since 1 July heating degree days 630 657  
Cooling Degree Days 0 0  
Month to date cooling degree days 1 0  
Year to date cooling degree days 1146 1034  
Moisture  
Dew Point 23 °F    
Average Humidity 49    
Maximum Humidity 64    
Minimum Humidity 34    
Precipitation  
Precipitation 0.00 in 0.12 in 2.44 in (2009)
Month to date precipitation 0.49 2.43  
Year to date precipitation 38.18 38.16  
Sea Level Pressure  
Sea Level Pressure 30.18 in    
Wind  
Wind Speed 6 mph (NNW)    
Max Wind Speed 14 mph    
Max Gust Speed 22 mph    
Visibility 10 miles    
Events      
T = Trace of Precipitation, MM = Missing Value Source: NWS Daily Summary

Daily Weather History Graph

Daily Weather History Graph

Search for Another Location

Airport:

Trip Planner

Search our weather history database for the weather conditions in past years. The results will help you decide how hot, cold, wet, or windy it might be!

Date:

Astronomy

Nov. 19, 2013 Rise Set
Actual Time 6:59 AM EST 4:58 PM EST
Civil Twilight 6:30 AM EST 5:27 PM EST
Nautical Twilight 5:58 AM EST 5:59 PM EST
Astronomical Twilight 5:27 AM EST 6:30 PM EST
Moon 6:48 PM EST (11/19) 8:36 AM EST (11/19)
Length of Visible Light 10h 56m
Length of Day
9h 59m
Waning Gibbous, 96% of the Moon is Illuminated
Nov 19
Waning Gibbous
Nov 25
Last Quarter
Dec 2
New
Dec 9
First Quarter
Dec 17
Full

Hourly Weather History & Observations

Time (EST) Temp. Windchill Dew Point Humidity Pressure Visibility Wind Dir Wind Speed Gust Speed Precip Events Conditions
12:53 AM 46.9 °F - 23.0 °F 39% 29.97 in 10.0 mi NW 8.1 mph - N/A   Clear
1:53 AM 46.0 °F 43.1 °F 21.9 °F 39% 29.98 in 10.0 mi NNW 5.8 mph - N/A   Clear
2:53 AM 44.1 °F 41.5 °F 21.9 °F 42% 29.99 in 10.0 mi NW 4.6 mph - N/A   Clear
3:53 AM 43.0 °F 41.3 °F 21.9 °F 43% 30.01 in 10.0 mi WNW 3.5 mph - N/A   Clear
4:53 AM 42.1 °F 39.2 °F 21.9 °F 45% 30.05 in 10.0 mi North 4.6 mph - N/A   Clear
5:53 AM 41.0 °F 39.0 °F 23.0 °F 49% 30.07 in 10.0 mi North 3.5 mph - N/A   Clear
6:53 AM 39.0 °F 34.8 °F 23.0 °F 53% 30.12 in 10.0 mi NNW 5.8 mph - N/A   Clear
7:53 AM 42.1 °F 40.2 °F 24.1 °F 49% 30.15 in 10.0 mi North 3.5 mph - N/A   Partly Cloudy
8:53 AM 44.1 °F 39.5 °F 24.1 °F 45% 30.18 in 10.0 mi North 8.1 mph - N/A   Partly Cloudy
9:53 AM 45.0 °F 38.9 °F 24.1 °F 44% 30.20 in 10.0 mi NW 12.7 mph 20.7 mph N/A   Partly Cloudy
10:53 AM 46.0 °F 40.6 °F 23.0 °F 40% 30.20 in 10.0 mi NNW 11.5 mph 18.4 mph N/A   Clear
11:53 AM 48.0 °F - 24.1 °F 39% 30.19 in 10.0 mi North 10.4 mph - N/A   Clear
12:53 PM 48.9 °F - 25.0 °F 39% 30.18 in 10.0 mi Variable 3.5 mph - N/A   Clear
1:53 PM 48.9 °F - 23.0 °F 36% 30.17 in 10.0 mi North 9.2 mph - N/A   Clear
2:53 PM 48.0 °F - 21.9 °F 36% 30.18 in 10.0 mi NW 8.1 mph - N/A   Clear
3:53 PM 46.9 °F - 23.0 °F 39% 30.20 in 10.0 mi NNW 8.1 mph - N/A   Clear
4:53 PM 44.1 °F 40.8 °F 23.0 °F 43% 30.22 in 10.0 mi NNW 5.8 mph - N/A   Clear
5:53 PM 41.0 °F 37.1 °F 23.0 °F 49% 30.25 in 10.0 mi NNW 5.8 mph - N/A   Clear
6:53 PM 39.0 °F 36.8 °F 23.0 °F 53% 30.27 in 10.0 mi North 3.5 mph - N/A   Clear
7:53 PM 37.9 °F 35.5 °F 23.0 °F 55% 30.30 in 10.0 mi North 3.5 mph - N/A   Clear
8:53 PM 37.9 °F 35.5 °F 24.1 °F 57% 30.32 in 10.0 mi NNE 3.5 mph - N/A   Clear
9:53 PM 37.0 °F 33.3 °F 24.1 °F 59% 30.34 in 10.0 mi East 4.6 mph - N/A   Clear
10:53 PM 35.1 °F - 24.1 °F 64% 30.35 in 10.0 mi Calm Calm - N/A   Clear
11:53 PM 35.1 °F - 24.1 °F 64% 30.37 in 10.0 mi Calm Calm - N/A   Clear